ラーソン彗星

250P/Larson (2018)

English version
Home page
Updated on September 5, 2024

---------------------------------------------------------------------

・ プロフィール

・ 写真集

・ 軌道要素

Epoch 2018 Feb. 11.0 TT = JDT 2458160.5
T 2018 Feb. 2.22099 TT                                  MPCW
q   2.2130563            (2000.0)            P               Q
n   0.13676449     Peri.   45.09413     -0.46314993     -0.85837849
a   3.7309590      Node    73.67989     +0.73453607     -0.51106715
e   0.4068398      Incl.   13.29091     +0.49593236     -0.04468490
P   7.21
From 418 observations 1995 Dec. 22-2018 Apr. 15, mean residual 0".5.

・ 光度変化

        m1 = 12.0 + 5 logΔ + 15.0 log r(t - 110)

---------------------------------------------------------------------

軌道要素はM.P.E.C. 2018-K95に掲載されたものです。
光度グラフはComet for Windowsで作成したものです。

---------------------------------------------------------------------

Copyright(C) Seiichi Yoshida (comet@aerith.net). All rights reserved.